Total_Precipitation_Accumulation
3.14 3.18 3.10 3.25 3.16 3.36 3.79 4.40 4.29 4.45 4.33 3.88 3.38 3.27 3.36 3.19 3.13 3.05 2.58 2.51 2.75 2.85 2.96 3.03 3.05 3.04 3.06 2.94 2.70 2.52 2.31 2.15 1.88 1.58 1.31 1.25 1.36 1.36 1.24 1.13 1.06 0.97 0.89
2.93 2.94 2.93 3.21 3.22 3.11 3.28 3.78 3.96 4.38 4.33 3.93 3.33 3.04 3.06 3.14 3.01 2.89 2.69 2.62 2.70 2.58 2.69 3.10 3.46 3.62 3.52 3.35 3.15 2.92 2.63 2.44 2.14 1.73 1.49 1.38 1.23 1.22 1.26 1.16 1.08 1.02 0.89
2.64 2.66 2.78 2.84 2.87 2.76 2.90 3.14 3.37 3.64 3.57 3.40 3.32 3.09 2.96 2.86 2.67 2.75 2.79 2.67 2.38 2.53 2.67 2.92 3.27 3.54 3.76 3.94 3.86 3.58 3.22 2.77 2.35 1.94 1.63 1.43 1.27 1.13 1.10 1.09 1.08 1.02 0.86
2.15 2.30 2.36 2.34 2.38 2.27 2.44 2.82 2.86 3.09 3.27 3.27 3.43 3.15 2.93 2.97 2.75 2.71 2.69 2.73 2.74 2.40 2.71 2.86 3.03 3.20 3.56 3.95 4.18 4.27 3.85 3.18 2.63 2.25 1.90 1.60 1.39 1.20 1.04 0.97 0.99 1.01 0.89
2.03 2.18 2.34 2.40 2.07 2.10 2.26 2.07 2.52 2.78 2.98 3.01 2.59 2.71 2.47 2.52 2.49 2.17 2.28 2.24 2.49 2.56 2.75 2.67 2.88 2.94 3.29 4.06 4.64 4.89 4.68 3.92 3.17 2.71 2.44 2.10 1.83 1.53 1.25 1.08 0.98 0.92 0.84
2.10 2.44 2.26 2.11 1.92 2.24 2.54 2.60 2.93 2.85 2.70 2.72 2.22 2.31 2.14 1.99 2.08 1.99 1.88 1.98 2.13 2.10 2.48 2.67 2.75 2.46 2.81 3.67 4.37 4.74 4.96 4.79 4.10 3.41 3.06 2.84 2.60 2.14 1.62 1.31 1.11 1.00 0.91
2.26 2.62 2.36 2.64 2.29 2.32 2.49 2.55 2.79 2.71 2.40 2.33 2.73 2.76 2.18 1.74 1.81 1.71 1.66 1.87 1.87 1.99 2.40 2.72 2.89 2.86 2.66 2.55 2.81 3.49 4.32 5.00 5.04 4.35 3.76 3.46 3.24 2.68 1.99 1.69 1.50 1.30 1.18
2.22 2.28 2.62 2.42 2.44 2.56 2.59 2.69 2.84 2.83 2.53 2.45 2.86 3.20 2.80 2.69 2.33 1.58 1.66 1.80 1.82 2.05 2.13 2.16 2.48 2.92 2.82 2.88 2.19 2.12 3.05 3.87 4.77 4.86 4.36 3.86 3.61 3.12 2.48 2.11 1.83 1.62 1.48
1.91 2.10 2.29 2.30 2.52 2.33 2.66 2.90 2.85 2.95 2.94 2.74 2.79 3.21 3.20 3.05 2.56 2.00 1.63 1.62 1.84 2.22 2.23 2.26 2.13 2.45 2.76 3.06 2.94 2.30 2.29 2.52 3.46 4.54 4.79 4.24 3.59 3.12 2.78 2.59 2.36 2.02 1.80
1.90 1.98 2.15 2.43 2.59 2.32 2.84 2.45 2.58 2.84 2.99 2.80 2.79 2.62 2.72 2.94 2.99 2.74 2.21 1.74 1.73 1.95 2.17 2.01 2.01 2.36 2.68 2.79 2.87 2.25 1.86 1.79 2.46 3.58 4.35 4.42 3.92 3.32 2.91 2.86 3.03 2.91 2.51
1.90 1.82 2.11 2.38 2.50 2.37 2.53 2.58 2.86 2.76 2.71 2.70 2.75 2.81 2.92 2.87 2.64 2.78 2.70 2.36 2.05 1.62 1.54 1.70 1.98 2.17 2.38 2.63 2.94 2.37 1.91 1.83 1.95 2.36 2.92 3.46 3.65 3.44 3.16 3.21 3.61 3.84 3.59
1.94 1.86 2.06 2.36 2.34 2.36 2.54 2.52 2.67 2.67 2.73 2.82 2.66 2.60 2.84 2.82 2.72 2.80 2.50 2.30 2.22 1.62 1.38 1.42 1.62 2.01 2.19 2.39 2.47 2.10 2.01 2.22 2.17 2.15 2.14 2.34 2.74 2.99 3.07 3.22 3.59 4.08 4.32
1.96 2.02 2.16 2.44 2.35 2.42 2.48 2.71 2.80 2.72 2.71 2.75 2.60 2.45 2.43 2.32 2.45 2.64 2.71 2.37 2.13 1.65 1.65 1.46 1.52 1.74 1.80 2.27 2.63 2.54 2.19 2.30 2.18 2.13 2.11 2.05 2.17 2.37 2.46 2.63 2.99 3.45 3.91
1.98 1.91 2.04 2.08 2.07 2.17 2.26 2.76 2.61 2.56 2.66 2.59 2.34 2.60 2.48 2.13 2.25 2.42 2.69 2.94 2.66 2.19 2.15 1.93 1.75 1.79 1.93 2.28 2.54 2.67 2.21 2.18 1.97 1.90 1.86 1.80 1.78 1.83 1.92 1.99 2.12 2.32 2.60
1.98 1.91 1.86 1.90 1.96 2.13 2.31 2.51 2.43 2.52 2.73 2.58 2.49 2.64 2.44 2.20 2.17 2.11 2.44 2.90 3.22 2.94 2.51 2.23 2.05 2.04 2.14 2.26 2.48 2.28 2.31 2.33 2.11 1.89 1.69 1.63 1.59 1.55 1.54 1.58 1.67 1.71 1.72
1.84 1.90 1.98 1.97 2.01 2.08 2.29 2.49 2.50 2.65 2.75 2.62 2.62 2.69 2.55 2.31 2.39 2.22 2.27 2.62 2.93 3.12 2.78 2.07 2.06 1.99 2.10 2.03 2.38 2.20 2.34 2.35 2.03 1.84 1.64 1.55 1.49 1.44 1.43 1.44 1.48 1.53 1.57
1.91 1.91 2.01 2.06 2.07 2.08 2.26 2.43 2.34 2.58 2.74 2.79 2.62 2.59 2.55 2.58 2.59 2.43 2.51 2.62 2.69 3.00 2.98 2.35 2.18 2.27 2.37 2.35 2.39 2.27 2.16 2.15 1.99 1.93 1.68 1.52 1.42 1.36 1.35 1.32 1.34 1.32 1.35
2.01 2.00 2.08 2.16 2.14 2.16 2.31 2.30 2.15 2.27 2.48 2.68 2.90 3.03 2.78 2.78 2.79 2.62 2.63 2.63 2.69 2.93 2.96 2.75 2.53 2.48 2.54 2.47 2.48 2.29 1.94 1.85 1.94 2.10 1.89 1.64 1.49 1.38 1.31 1.27 1.25 1.23 1.25
2.26 2.26 2.33 2.26 2.28 2.34 2.33 2.24 2.26 2.29 2.39 2.47 2.73 2.98 2.96 3.10 2.86 2.88 2.81 2.70 2.71 2.73 2.91 2.75 2.54 2.68 2.69 2.63 2.55 2.17 1.99 2.07 1.90 2.15 2.07 1.75 1.56 1.44 1.32 1.21 1.14 1.12 1.12
2.42 2.43 2.48 2.41 2.37 2.41 2.42 2.42 2.42 2.38 2.44 2.41 2.46 2.59 2.70 2.98 2.95 3.00 2.84 2.86 2.99 3.06 3.16 2.99 2.81 2.88 2.99 2.98 2.83 2.46 2.29 2.19 2.07 1.90 2.04 1.84 1.70 1.59 1.44 1.28 1.18 1.10 1.10
2.48 2.65 2.63 2.55 2.56 2.57 2.36 2.50 2.72 2.69 2.74 2.53 2.44 2.40 2.37 2.61 2.69 2.75 2.51 2.68 2.97 3.04 3.11 3.03 2.92 2.93 2.93 3.09 2.80 2.61 2.45 2.42 2.30 2.03 1.98 1.74 1.65 1.52 1.48 1.47 1.36 1.24 1.15
2.85 2.77 2.65 2.70 2.69 2.46 2.60 2.68 2.61 2.64 2.84 2.82 2.69 2.61 2.47 2.42 2.41 2.44 2.48 2.55 2.70 2.72 2.78 2.86 2.77 2.76 2.82 2.97 3.14 3.01 2.79 2.58 2.32 2.03 2.05 1.80 1.68 1.61 1.47 1.33 1.45 1.41 1.27
2.89 2.77 2.77 2.81 2.74 2.76 2.75 2.54 2.40 2.39 2.47 2.57 2.64 2.62 2.34 2.20 2.42 2.31 2.48 2.49 2.31 2.24 2.26 2.40 2.40 2.40 2.85 3.16 3.48 3.15 2.96 2.77 2.48 2.30 2.23 1.87 1.72 1.65 1.48 1.42 1.57 1.41 1.27
2.96 2.91 2.85 2.73 2.66 2.56 2.61 2.38 2.37 2.24 2.18 2.14 2.27 2.39 2.33 2.23 2.27 2.37 2.29 2.06 1.85 1.85 1.90 1.82 1.85 2.09 2.53 3.11 3.42 3.37 3.35 3.08 2.73 2.33 2.16 1.87 1.66 1.59 1.47 1.50 1.69 1.59 1.41
2.90 2.74 2.63 2.60 2.55 2.61 2.84 2.58 2.42 2.18 2.16 2.02 2.01 2.01 2.04 1.92 2.07 2.17 2.06 1.84 1.69 1.63 1.69 1.71 1.69 1.89 2.15 2.50 2.93 3.14 3.02 2.83 2.43 2.03 1.90 1.78 1.64 1.68 1.61 1.51 1.52 1.67 1.55
3.15 3.10 2.97 2.88 2.78 2.75 2.97 2.71 2.49 2.23 2.20 2.13 2.11 2.07 2.13 1.90 1.83 1.78 1.70 1.71 1.53 1.44 1.57 1.55 1.51 1.55 1.66 1.97 2.44 2.53 2.54 2.63 2.35 2.02 1.75 1.79 1.69 1.89 1.83 1.55 1.42 1.44 1.45